Flag for Netherlands Weather past 2 weeks in 's-Hertogenbosch, Netherlands

Now
36 °F

Fog.


Feels Like: 31 °F
Forecast: 37 / 49 °F
Wind: 6 mph from West

Location: Volkel

Current Time: Mar 5, 2015 at 6:14:01 AM

Latest Report: Mar 5, 2015 at 5:55 AM


Visibility: 3 mi

Pressure: 30.60 "Hg

Humidity: 100%

Dew point: 36 °F

Location of 's-HertogenboschLocation

Historic Weather in 's-Hertogenbosch — Graph

°F

's-Hertogenbosch temperature yesterday

Maximum temperature yesterday: 45 °F (at 1:25 PM)
Minimum temperature yesterday: 32 °F (at 1:55 AM)
Average temperature yesterday: 40 °F

Past Weeks' High & Low Weather Summary

 TemperatureHumidityPressure
High54 °F (Mar 1, 12:25 PM)100% (Feb 18, 4:25 AM)30.74 "Hg (Feb 18, 4:25 AM)
Low25 °F (Feb 22, 6:25 AM)50% (Feb 28, 2:25 PM)29.33 "Hg (Feb 23, 4:55 AM)
Average40 °F85%29.88 "Hg
* Reported Feb 18 4:25 AM — Mar 5 4:25 AM, 's-Hertogenbosch, Weather by CustomWeather, © 2015

Note: Actual official high and low records may vary slightly from our data, if they occured in-between our weather recording intervals... More about our weather records

Advertising

's-Hertogenbosch weather history for previous 24 hours

 ConditionsComfort  
Time TempWeatherWind HumidityBarometerVisibility
4:25 AM
Thu, Mar 5
34 °FFog.6 mph100%30.60 "Hg3 mi
3:55 AM36 °FFog.5 mph93%30.57 "Hg5 mi
2:55 AM36 °FChilly.6 mph100%30.57 "HgN/A
2:25 AM37 °FChilly.5 mph93%30.57 "HgN/A
1:55 AM37 °FChilly.5 mph93%30.54 "HgN/A
1:25 AM37 °FPassing clouds.5 mph93%30.54 "HgN/A
12:55 AM37 °FChilly.5 mph93%30.54 "HgN/A
12:25 AM39 °FPartly cloudy.3 mph87%30.51 "HgN/A
11:55 PM
Wed, Mar 4
39 °FPassing clouds.3 mph93%30.51 "HgN/A
11:25 PM41 °FPassing clouds.7 mph87%30.48 "HgN/A
10:25 PM41 °FPassing clouds.7 mph87%30.45 "HgN/A
9:55 PM41 °FPassing clouds.7 mph87%30.45 "HgN/A
9:25 PM41 °FPartly cloudy.7 mph87%30.42 "HgN/A
8:55 PM41 °FOvercast.8 mph87%30.42 "HgN/A
8:25 PM41 °FMostly cloudy.8 mph87%30.39 "HgN/A
7:55 PM41 °FPartly cloudy.10 mph81%30.39 "HgN/A
7:25 PM41 °FOvercast.9 mph81%30.39 "HgN/A
7:00 PM41 °FPassing clouds.12 mph81%30.36 "HgN/A
6:25 PM43 °FPartly cloudy.10 mph76%30.33 "HgN/A
5:55 PM43 °FPartly sunny.13 mph76%30.33 "HgN/A
5:25 PM45 °FBroken clouds.14 mph66%30.30 "HgN/A
4:55 PM45 °FPartly sunny.9 mph66%30.30 "HgN/A
4:25 PM45 °FBroken clouds.12 mph66%30.30 "HgN/A
4:03 PM45 °FBroken clouds.15 mph66%30.27 "HgN/A
3:59 PM45 °FBroken clouds.14 mph71%30.27 "HgN/A
3:25 PM45 °FBroken clouds.15 mph71%30.27 "HgN/A
2:55 PM43 °FMostly cloudy.12 mph81%30.27 "HgN/A
2:25 PM43 °FBroken clouds.12 mph76%30.27 "HgN/A
1:55 PM45 °FBroken clouds.14 mph71%30.27 "HgN/A
1:25 PM45 °FMore clouds than sun.14 mph66%30.24 "HgN/A
12:55 PM43 °FMostly cloudy.15 mph71%30.24 "HgN/A
12:25 PM43 °FOvercast.15 mph71%30.24 "HgN/A
12:04 PM43 °FMostly cloudy.14 mph76%30.24 "HgN/A
11:55 AM43 °FCloudy.14 mph76%30.21 "HgN/A
11:25 AM43 °FMostly cloudy.13 mph76%30.21 "HgN/A
11:03 AM43 °FMostly cloudy.14 mph76%30.21 "HgN/A
10:25 AM43 °FMostly cloudy.15 mph76%30.21 "HgN/A
9:55 AM41 °FPassing clouds.15 mph81%30.18 "HgN/A
9:25 AM39 °FPassing clouds.15 mph81%30.18 "HgN/A
8:55 AM37 °FChilly.16 mph87%30.18 "HgN/A
8:25 AM36 °FChilly.13 mph87%30.15 "HgN/A
7:55 AM36 °FChilly.13 mph87%30.15 "HgN/A
7:25 AM36 °FChilly.12 mph87%30.15 "HgN/A
6:55 AM36 °FPassing clouds.12 mph87%30.15 "HgN/A
6:25 AM36 °FPassing clouds.14 mph87%30.15 "HgN/A
6:04 AM36 °FPassing clouds.14 mph87%30.12 "HgN/A
Weather by CustomWeather, © 2015

See weather overviewHow to use our weather pages